Regional Weather Roundup
Issued by NWS Cleveland, OH

Home | Current Version | Previous Version | Graphics & Text | Print | Product List | Glossary On
Versions: 1 2 3 4 5 6 7 8 9 10 11 12 13 14 15 16 17 18 19 20 21 22 23 24 25 26 27 28 29 30 31 32 33 34 35 36 37 38 39 40 41 42 43 44 45 46 47 48 49 50
496
ASUS41 KCLE 121302
RWRCLE
OHIO REGIONAL WEATHER ROUNDUP
NATIONAL WEATHER SERVICE CLEVELAND, OH
800 AM EST FRI FEB 12 2016

NOTE: "FAIR" INDICATES FEW OR NO CLOUDS BELOW 12,000 FEET WITH NO
SIGNIFICANT WEATHER AND/OR OBSTRUCTIONS TO VISIBILITY.

OHZ001>008-015>018-024>027-034-035-043-044-121400-
   NORTHWEST OHIO

CITY           SKY/WX    TMP DP  RH WIND       PRES   REMARKS
DEFIANCE       CLOUDY    19   9  65 SW7       30.14F WCI  10
FINDLAY        CLOUDY    17  10  74 SW7       30.13F WCI   8
TOLEDO EXPRESS CLOUDY    16   7  67 SW8       30.12F WCI   5
TOLEDO EXEC      N/A     17   8  67 MISG      30.14F
LIMA           CLOUDY    17  10  74 SW7       30.13F WCI   8
$$

OHZ009>014-019>023-028>033-038-089-121400-
   NORTHEAST OHIO

CITY           SKY/WX    TMP DP  RH WIND       PRES   REMARKS
CLE-HOPKINS    CLOUDY    14   6  70 S10       30.16S WCI   1
CLE-LAKEFRONT  CLOUDY    17   8  67 S10       30.14S WCI   5
CUY CO. ARPT   MOCLDY    16   9  73 SW7       30.13S WCI   6
LORAIN-ELYRIA  CLOUDY    14   6  70 SW7       30.14F WCI   4
ASHTABULA      CLOUDY    12   6  77 S8        30.11F WCI   0
AKRON-CANTON   CLOUDY    11   5  77 SW7       30.13F WCI   0
WOOSTER        CLOUDY    12   6  77 SW8       30.14F WCI   0
MANSFIELD      CLOUDY    13   6  74 S7        30.11F WCI   3
YOUNGSTOWN     CLOUDY    11   5  77 S7        30.12F WCI   0
$$

OHZ042-051>053-060>062-070>072-077>081-121400-
  SOUTHWEST OHIO

CITY           SKY/WX    TMP DP  RH WIND       PRES   REMARKS
CINC-COVINGTON CLOUDY    20  12  71 S3        30.17S
CINC-LUNKEN    CLOUDY    19  13  77 CALM      30.21F
HAMILTON       CLOUDY    18  11  74 CALM      30.19F
DAYTON         CLOUDY    15   8  73 S5        30.15F WCI   8
WRIGHT-PAT AFB MOCLDY    13   7  75 SE3       30.16F
DAYTON GENERAL CLOUDY    16   5  62 S6        30.15F WCI   7
WILMINGTON     CLOUDY    15   7  70 S3        30.15F
$$

OHZ036-037-039>041-045>050-054>059-063>069-073>076-082>088-121400-
  CENTRAL AND SOUTHEAST OHIO

CITY           SKY/WX    TMP DP  RH WIND       PRES   REMARKS
COLUMBUS       CLOUDY    12   5  73 S3        30.18F
OSU AIRPORT    CLOUDY    15   7  70 S8        30.16F WCI   4
BOLTON FIELD   CLOUDY    10   7  85 SW3       30.18S
RICKENBACK AFB NOT AVBL
NEWARK         CLOUDY    11   6  81 CALM      30.17F
MARION         CLOUDY    16   7  67 S7        30.15S WCI   6
LANCASTER      CLOUDY    11   6  81 CALM      30.18F
ZANESVILLE     CLOUDY     7   2  80 CALM      30.18F
NEW PHILLY     CLOUDY     9   6  88 SE5       30.18F WCI   1
$$




USA.gov is the U.S. government's official web portal to all federal, state and local government web resources and services.